Wind_Speed
14 16 15 11 11 13 11 9 11 8 6 3 9 16 11 4 6 5 20 20 20 20 21 20 17 16 14 16 16 16 14 14 13 13 13 14 12 8 6 7 9 8 10 11 11 10 10 10 8
16 14 14 17 15 16 9 11 11 8 5 3 10 7 12 3 1 17 21 21 20 19 18 17 15 14 13 14 16 14 12 12 11 11 12 14 11 6 6 6 6 8 10 10 9 10 9 8 7
15 16 14 11 13 12 15 12 11 8 5 3 5 9 5 6 8 20 19 19 20 18 15 14 14 13 13 13 14 12 11 9 9 7 7 8 9 6 2 4 6 8 10 11 10 9 9 9 8
15 12 14 16 15 12 14 14 14 12 5 2 2 5 8 15 19 19 17 16 17 16 14 11 11 11 11 11 11 9 8 6 6 5 5 6 5 5 3 3 5 8 10 11 10 9 9 8 7
11 10 10 14 13 11 9 11 13 12 8 5 5 4 10 20 16 15 13 13 13 14 14 12 11 10 9 9 8 6 5 4 3 4 2 1 0 2 3 5 6 7 8 9 9 9 9 8 7
11 13 10 15 14 11 9 8 13 15 11 4 2 8 16 16 14 14 13 12 13 12 11 10 9 7 7 6 5 3 3 4 4 4 3 3 3 2 3 6 8 8 9 9 8 7 7 6 7
5 10 13 11 11 8 6 7 10 11 12 6 2 9 14 13 14 11 11 11 11 11 10 8 5 4 4 5 4 3 3 4 4 4 4 4 6 5 6 7 10 10 11 10 8 8 8 7 7
2 5 7 12 10 7 4 5 5 5 10 9 4 7 10 12 11 9 9 10 11 11 10 8 6 5 4 3 3 3 3 4 4 3 5 7 9 10 9 11 12 12 12 12 11 10 10 9 9
2 3 5 12 10 10 9 11 11 7 6 6 7 6 9 12 11 9 9 9 9 9 6 5 4 3 1 2 3 3 4 6 6 6 7 9 10 8 7 9 15 15 15 14 14 13 12 11 10
3 6 11 11 13 14 12 12 14 9 7 7 5 9 13 12 12 8 9 7 7 6 4 5 5 4 3 4 6 5 6 7 7 8 9 10 7 6 5 7 10 17 18 18 17 16 14 13 13
3 10 12 9 10 13 15 17 14 11 9 11 7 9 11 12 12 10 9 9 8 6 5 4 4 2 3 6 9 9 8 6 5 7 10 8 5 5 4 6 8 11 18 20 19 18 17 17 16
8 7 7 8 11 11 14 15 14 13 13 13 14 10 9 10 11 12 9 6 4 4 4 4 2 3 2 4 9 11 10 7 7 10 10 7 7 5 3 3 7 9 14 20 20 19 19 19 19
8 8 5 5 6 7 11 13 14 14 16 15 13 14 12 11 13 9 8 8 4 5 3 4 2 3 6 7 8 15 11 7 8 8 9 6 7 8 7 5 7 8 7 14 19 19 20 21 20
7 8 7 4 0 4 7 10 12 11 14 17 16 16 15 13 10 8 7 7 7 6 5 4 3 4 10 11 13 10 9 4 3 5 6 7 8 10 9 8 8 8 7 9 11 14 16 17 20
9 12 12 9 6 5 4 7 11 12 10 12 14 15 16 17 15 14 13 11 10 7 7 5 1 4 5 6 10 9 5 3 1 2 2 3 6 6 7 7 7 10 11 12 12 14 14 12 12
9 14 15 12 11 10 7 6 4 10 11 10 11 14 17 17 16 16 14 14 11 10 8 6 6 4 5 8 7 5 2 2 1 1 1 3 5 5 7 7 7 8 9 12 15 12 11 12 14
13 8 14 13 16 16 13 9 2 4 9 10 11 13 11 14 15 15 15 13 13 12 11 9 8 8 5 4 4 3 3 4 4 4 4 6 6 7 6 6 8 8 9 9 13 13 13 13 14
4 3 8 15 20 24 23 19 13 3 5 6 9 12 11 12 11 13 12 13 13 11 8 7 7 5 5 3 3 5 6 7 9 8 8 8 7 6 8 6 6 8 7 7 7 10 12 12 17
3 8 13 13 16 19 31 26 21 13 7 6 8 11 10 10 11 10 9 7 8 8 6 4 2 4 4 3 5 6 7 9 12 14 14 3 5 8 8 9 9 7 8 8 7 7 10 10 13
8 11 11 18 23 13 23 27 23 22 16 10 7 7 8 6 8 7 6 7 6 6 5 3 3 0 1 2 2 4 7 6 7 12 16 19 18 7 10 8 11 11 8 9 9 8 8 9 11
11 11 15 23 24 9 19 24 24 23 21 18 16 11 7 5 5 6 7 10 11 7 7 6 4 3 1 3 3 4 6 7 10 11 10 13 16 14 12 12 14 13 13 12 10 10 11 11 10
14 10 17 20 21 10 14 5 12 17 24 24 21 15 15 11 9 15 7 13 14 12 12 9 8 7 5 5 8 7 7 10 12 12 11 9 8 10 11 12 14 14 15 14 15 13 12 12 12
16 15 18 21 19 9 14 5 11 12 13 16 20 21 21 20 16 20 20 7 20 17 14 11 11 11 10 9 8 11 10 9 9 9 11 14 16 16 13 13 14 14 15 15 16 17 15 14 13
16 15 18 17 8 4 9 12 6 7 9 13 17 22 23 22 24 24 18 20 18 19 20 18 20 15 17 18 15 12 12 9 10 12 12 13 14 15 17 17 17 15 16 16 14 15 16 17 17
13 12 6 2 1 5 5 8 10 8 16 10 11 17 19 20 28 22 15 16 19 13 18 20 25 26 24 27 27 8 13 11 11 12 14 19 20 17 16 17 18 19 17 17 19 16 14 17 19
8 8 4 3 2 4 6 5 6 7 11 10 9 11 15 18 15 15 11 16 13 17 21 31 31 27 23 31 19 11 13 13 13 17 20 23 24 20 19 20 21 21 22 20 20 20 19 20 20
6 7 10 4 1 2 3 6 9 6 9 7 7 6 6 5 12 16 9 12 16 17 16 26 25 20 21 21 10 10 10 15 20 23 24 26 29 26 27 29 28 26 25 24 23 23 23 22 22
10 7 6 5 4 3 4 6 10 7 8 8 8 6 4 2 10 10 9 12 13 13 13 18 13 12 12 11 8 12 14 18 24 25 28 30 33 30 31 33 36 36 31 28 26 26 26 26 26
11 7 5 6 4 7 3 6 10 9 7 10 8 9 5 4 3 3 1 5 7 6 11 14 8 14 7 7 10 15 15 23 26 29 33 35 37 35 38 39 40 39 36 30 29 26 32 29 31
18 13 12 9 5 6 3 5 5 7 9 13 14 10 3 5 1 2 4 3 5 3 2 2 3 4 6 9 12 15 20 25 29 33 37 39 39 41 43 42 39 36 34 33 32 31 32 30 32
Wind_Direction
44 47 55 78 66 63 69 68 69 65 82 125 142 149 154 150 114 137 142 135 132 136 140 135 132 131 131 130 131 128 129 127 121 107 92 82 71 70 85 104 120 127 129 125 124 126 124 121 122
55 56 72 72 66 65 60 67 68 51 55 161 170 178 180 234 254 146 140 136 133 137 139 136 141 137 132 134 137 138 134 128 126 116 107 87 61 47 70 103 126 146 140 135 137 132 128 126 129
62 63 77 58 64 76 63 56 53 43 61 188 225 191 244 188 126 140 140 138 135 138 140 138 136 137 137 142 141 145 139 138 137 127 118 60 44 61 71 121 138 154 150 144 147 141 141 140 137
50 56 63 63 68 74 62 63 52 43 43 136 185 149 135 129 140 141 142 144 136 135 137 138 134 137 145 144 145 147 140 142 142 139 142 82 86 67 148 157 173 171 159 152 156 153 153 155 151
47 47 61 69 68 67 62 53 54 53 64 99 130 131 131 133 132 135 138 144 138 140 143 141 139 141 145 145 143 136 143 151 159 174 180 114 84 34 153 181 196 191 176 169 171 173 173 169 174
60 68 74 58 55 50 44 50 42 42 51 110 172 165 142 127 135 142 144 148 145 151 151 146 141 141 141 135 133 126 150 175 185 202 224 227 264 330 197 189 193 202 198 192 185 195 202 195 204
81 67 76 72 58 52 34 61 44 33 51 77 101 163 156 141 140 139 142 143 149 158 155 145 135 133 142 142 149 152 161 183 204 225 253 265 276 298 260 217 197 198 210 210 210 208 215 223 232
113 86 78 66 61 56 63 54 23 43 49 85 141 192 190 167 157 150 147 151 159 163 158 150 145 148 159 164 185 195 192 217 240 263 272 268 279 287 280 225 207 201 206 216 222 224 223 232 241
158 46 68 67 47 46 44 32 51 69 57 85 145 168 187 178 174 169 167 162 172 172 161 157 153 144 162 228 240 228 235 249 265 272 277 286 299 312 281 230 213 206 208 210 222 232 236 239 248
169 73 64 79 69 61 58 43 44 69 91 76 121 148 162 174 165 166 171 168 176 164 169 187 184 184 203 232 243 245 257 271 289 288 298 309 308 308 302 245 236 216 215 214 216 227 239 248 254
175 81 68 83 75 58 55 49 49 67 88 97 79 128 143 158 170 165 175 175 177 184 184 189 202 188 246 238 244 243 256 270 295 305 312 310 284 294 292 244 234 223 220 220 222 226 234 246 254
228 119 77 66 73 66 52 54 57 76 78 84 100 114 131 133 139 120 150 182 181 181 164 166 155 180 208 291 258 222 226 252 274 289 292 289 272 275 304 238 243 244 232 226 229 231 236 243 253
218 172 138 60 35 51 40 49 48 73 72 82 105 114 128 129 152 150 155 163 167 171 181 152 172 239 296 342 25 201 206 244 286 290 288 285 280 283 281 277 247 242 232 226 231 238 246 250 252
224 193 176 174 174 13 12 37 64 65 82 93 107 110 109 116 125 142 120 128 133 148 171 194 217 25 354 28 67 152 208 270 299 312 281 267 285 293 297 290 283 263 247 234 238 248 251 255 256
195 218 198 208 229 268 315 17 62 68 85 85 99 104 106 102 107 111 112 114 130 142 158 179 144 20 40 58 86 107 142 142 11 321 4 269 268 282 298 303 289 272 257 254 252 242 252 259 264
216 203 208 235 242 266 274 305 21 77 76 95 93 104 111 111 110 107 106 110 118 130 145 154 135 111 87 84 81 86 96 76 87 15 340 294 285 286 294 307 315 315 297 280 259 265 260 254 261
191 219 233 274 253 255 261 279 288 118 89 98 114 125 120 122 115 113 111 117 125 129 131 128 123 118 103 71 65 41 357 311 296 305 292 278 287 298 300 309 315 308 305 297 280 257 269 248 260
145 302 326 273 279 266 262 268 269 238 140 121 117 122 131 133 119 116 116 118 119 123 126 124 117 105 96 74 24 359 334 321 308 288 271 273 271 278 293 304 312 320 318 314 303 266 254 275 251
307 311 317 325 331 282 269 271 267 268 250 225 160 132 116 138 139 137 129 126 125 124 121 108 92 99 85 62 31 359 335 332 313 309 313 262 270 267 285 300 304 303 314 320 316 294 262 262 252
292 303 309 340 348 283 264 262 258 260 275 261 217 174 123 102 140 138 156 156 158 166 178 160 142 142 56 78 35 340 309 299 297 323 324 329 285 357 313 315 306 292 296 299 303 299 286 279 270
261 285 328 335 337 271 253 253 256 257 249 249 238 228 215 137 152 185 220 214 190 195 194 194 207 204 243 322 326 333 332 339 334 324 306 315 329 323 302 302 295 300 281 284 282 282 282 276 277
266 293 316 327 319 276 220 253 274 260 256 251 247 245 234 231 212 193 354 244 212 207 207 211 230 251 260 272 307 319 334 338 332 348 349 347 321 305 297 299 298 301 299 288 276 267 265 270 270
269 283 312 320 315 256 208 223 262 274 266 261 257 245 246 246 245 234 294 255 217 220 223 225 234 246 261 271 283 295 297 320 322 345 354 358 352 346 331 309 280 285 294 292 285 259 254 259 266
258 287 313 308 277 214 227 212 249 255 281 254 244 244 251 267 259 261 274 301 235 240 221 235 229 237 242 233 235 263 277 290 306 338 348 351 345 340 341 338 334 314 294 292 293 269 261 261 259
248 295 319 318 57 211 179 193 256 320 293 275 232 246 259 279 265 268 288 293 255 275 259 244 239 247 255 261 255 239 263 271 305 321 328 333 328 326 331 331 327 323 314 299 295 290 271 267 271
260 271 235 251 238 287 165 234 264 307 281 258 247 230 250 261 265 272 273 275 241 256 279 269 262 241 257 274 257 262 270 276 297 305 315 323 325 319 320 323 322 319 312 304 295 288 284 279 277
229 269 272 237 224 165 248 256 295 283 293 273 235 222 226 228 244 265 237 245 249 254 284 298 298 259 250 264 240 249 261 277 294 301 308 314 321 314 312 315 313 309 306 298 290 285 282 280 282
249 253 249 218 136 223 248 261 258 304 276 254 200 214 135 136 233 256 273 280 274 262 253 301 309 151 198 219 235 239 252 289 299 299 302 304 313 309 307 307 307 305 304 300 289 281 280 279 280
226 246 256 236 203 162 172 250 299 280 250 226 219 171 146 117 169 71 152 234 291 279 264 288 235 237 240 257 263 261 270 302 297 297 299 300 306 305 306 304 303 302 301 297 288 283 285 281 276
267 266 260 237 222 215 219 235 295 298 220 223 210 198 226 181 215 187 250 273 279 249 258 247 176 253 299 311 292 290 292 292 289 292 296 299 301 302 302 301 301 299 297 295 293 288 284 281 277
Height
3153 3151 3149 3148 3152 3150 3148 3148 3148 3147 3147 3147 3148 3150 3151 3151 3153 3157 3156 3158 3160 3163 3165 3167 3172 3173 3175 3177 3178 3180 3181 3183 3185 3186 3187 3187 3187 3188 3189 3188 3189 3190 3191 3191 3192 3193 3194 3195 3195
3155 3154 3153 3151 3152 3151 3151 3150 3150 3150 3149 3149 3150 3151 3152 3153 3154 3155 3158 3160 3163 3167 3169 3171 3173 3176 3177 3178 3179 3182 3183 3184 3186 3187 3188 3187 3189 3190 3190 3189 3190 3192 3192 3193 3193 3194 3195 3196 3197
3158 3156 3154 3153 3154 3154 3154 3154 3153 3152 3151 3151 3152 3152 3153 3154 3156 3159 3161 3164 3166 3169 3171 3173 3175 3176 3178 3179 3181 3183 3184 3186 3187 3188 3188 3187 3189 3190 3190 3190 3192 3193 3194 3194 3194 3195 3196 3197 3198
3160 3159 3158 3157 3156 3157 3157 3156 3156 3154 3153 3152 3152 3153 3155 3156 3160 3161 3164 3167 3168 3170 3172 3174 3176 3178 3179 3181 3182 3184 3186 3187 3188 3188 3189 3189 3190 3190 3190 3192 3193 3194 3195 3195 3196 3197 3197 3198 3199
3162 3160 3160 3158 3158 3159 3159 3158 3158 3157 3155 3154 3154 3155 3157 3159 3162 3165 3167 3169 3171 3173 3175 3176 3178 3180 3181 3182 3183 3185 3187 3188 3189 3189 3190 3190 3191 3192 3191 3192 3194 3194 3195 3196 3197 3197 3198 3199 3199
3165 3163 3162 3160 3160 3160 3160 3160 3159 3158 3158 3157 3157 3158 3159 3162 3164 3166 3169 3171 3173 3176 3177 3179 3180 3181 3182 3184 3185 3187 3188 3189 3189 3190 3191 3191 3192 3192 3192 3192 3193 3194 3195 3196 3197 3198 3198 3198 3199
3167 3166 3164 3164 3163 3162 3162 3161 3162 3162 3160 3159 3159 3160 3162 3163 3165 3168 3170 3172 3175 3177 3179 3180 3182 3184 3185 3185 3186 3187 3188 3189 3189 3190 3190 3191 3191 3191 3192 3192 3193 3194 3195 3195 3196 3198 3198 3198 3199
3169 3169 3167 3166 3167 3166 3164 3163 3163 3163 3162 3161 3162 3163 3164 3165 3166 3169 3171 3173 3176 3178 3180 3181 3182 3184 3185 3186 3186 3187 3188 3189 3190 3190 3190 3189 3190 3190 3189 3190 3192 3193 3193 3195 3196 3197 3198 3198 3199
3170 3170 3169 3169 3169 3168 3166 3166 3164 3163 3163 3162 3162 3163 3166 3167 3169 3171 3173 3175 3177 3179 3180 3182 3183 3185 3186 3187 3187 3188 3188 3189 3189 3188 3188 3188 3187 3187 3187 3188 3189 3191 3192 3194 3195 3196 3197 3198 3199
3172 3172 3171 3171 3170 3169 3168 3167 3165 3164 3163 3162 3162 3163 3164 3168 3170 3172 3174 3176 3178 3180 3182 3183 3184 3184 3185 3186 3187 3188 3188 3189 3189 3188 3188 3187 3187 3187 3187 3187 3188 3189 3190 3192 3193 3194 3195 3196 3197
3173 3173 3173 3173 3172 3171 3169 3168 3166 3165 3164 3163 3164 3165 3166 3169 3171 3173 3176 3177 3180 3181 3182 3184 3185 3186 3185 3185 3186 3187 3188 3188 3188 3188 3187 3187 3187 3187 3186 3185 3186 3187 3188 3190 3191 3192 3194 3194 3195
3174 3174 3175 3174 3174 3173 3172 3171 3169 3167 3166 3164 3166 3169 3170 3171 3173 3175 3176 3179 3181 3182 3183 3184 3185 3185 3185 3184 3183 3184 3186 3187 3187 3186 3187 3187 3187 3186 3185 3185 3184 3185 3186 3187 3188 3191 3191 3192 3193
3175 3176 3176 3175 3175 3175 3174 3173 3172 3170 3169 3167 3168 3170 3172 3173 3175 3176 3178 3179 3180 3182 3184 3185 3186 3185 3184 3179 3178 3181 3184 3186 3186 3186 3186 3186 3186 3186 3185 3184 3183 3183 3183 3184 3186 3188 3188 3189 3189
3176 3177 3177 3176 3176 3177 3177 3177 3175 3174 3172 3171 3172 3173 3174 3176 3178 3178 3179 3180 3182 3184 3186 3186 3186 3185 3184 3181 3181 3182 3185 3187 3187 3186 3185 3185 3186 3185 3185 3184 3183 3182 3183 3183 3184 3185 3185 3186 3186
3177 3177 3178 3177 3177 3178 3178 3178 3177 3177 3176 3175 3174 3175 3176 3177 3179 3180 3181 3182 3183 3185 3186 3187 3188 3188 3187 3186 3184 3184 3186 3186 3186 3186 3185 3185 3185 3184 3183 3182 3182 3180 3180 3181 3181 3180 3182 3183 3184
3177 3178 3178 3178 3177 3177 3179 3179 3179 3179 3179 3178 3178 3178 3177 3178 3180 3181 3182 3183 3184 3185 3187 3188 3187 3188 3188 3187 3187 3187 3187 3186 3186 3185 3185 3185 3184 3183 3182 3181 3179 3179 3178 3177 3177 3177 3178 3179 3180
3178 3178 3179 3179 3178 3179 3179 3177 3180 3181 3181 3180 3180 3178 3180 3180 3182 3183 3184 3185 3185 3186 3187 3187 3188 3188 3189 3189 3189 3187 3187 3186 3186 3185 3185 3183 3183 3183 3181 3180 3178 3178 3177 3176 3175 3175 3176 3177 3178
3179 3179 3179 3178 3180 3178 3177 3177 3178 3181 3181 3181 3180 3180 3181 3182 3183 3184 3185 3186 3187 3187 3188 3189 3188 3189 3188 3189 3189 3189 3188 3187 3185 3183 3181 3180 3180 3180 3180 3179 3178 3177 3176 3175 3174 3174 3174 3175 3176
3179 3179 3177 3177 3178 3175 3173 3176 3176 3179 3180 3179 3180 3181 3182 3183 3184 3186 3187 3189 3189 3188 3188 3189 3189 3188 3188 3188 3187 3188 3187 3187 3184 3181 3177 3177 3177 3176 3177 3178 3177 3176 3175 3174 3173 3173 3173 3172 3172
3175 3175 3175 3174 3174 3173 3171 3172 3175 3175 3178 3179 3181 3181 3183 3184 3187 3188 3189 3190 3191 3190 3189 3189 3189 3189 3188 3188 3188 3187 3188 3187 3184 3180 3178 3179 3157 3174 3175 3175 3175 3175 3173 3172 3172 3171 3170 3170 3170
3174 3173 3173 3174 3172 3171 3171 3172 3172 3172 3173 3174 3177 3180 3182 3185 3187 3188 3184 3188 3189 3189 3189 3189 3189 3188 3188 3188 3187 3186 3185 3184 3182 3180 3179 3176 3172 3172 3172 3173 3172 3172 3170 3170 3170 3169 3169 3168 3168
3170 3171 3171 3171 3171 3170 3171 3170 3168 3168 3169 3171 3174 3178 3179 3178 3179 3180 3183 3184 3185 3186 3187 3186 3188 3188 3187 3186 3185 3183 3182 3181 3180 3178 3177 3175 3174 3174 3172 3172 3171 3169 3165 3168 3167 3167 3166 3166 3165
3168 3170 3170 3167 3166 3168 3169 3170 3165 3166 3166 3167 3171 3175 3174 3175 3174 3173 3176 3171 3177 3181 3184 3184 3184 3184 3185 3182 3181 3182 3181 3181 3179 3178 3176 3174 3172 3171 3169 3169 3167 3167 3166 3165 3163 3162 3163 3163 3162
3165 3168 3167 3165 3164 3167 3167 3168 3165 3164 3164 3164 3167 3169 3171 3170 3170 3173 3173 3173 3173 3177 3180 3180 3179 3181 3180 3172 3171 3175 3178 3178 3178 3177 3176 3173 3171 3168 3167 3166 3165 3164 3164 3163 3161 3160 3160 3159 3158
3164 3167 3166 3166 3165 3166 3165 3167 3164 3161 3161 3162 3163 3164 3168 3168 3169 3172 3172 3172 3172 3177 3177 3179 3178 3177 3174 3171 3148 3162 3172 3175 3176 3174 3173 3172 3169 3167 3164 3163 3162 3160 3160 3160 3159 3159 3157 3155 3155
3162 3165 3165 3168 3168 3163 3163 3163 3160 3158 3158 3159 3160 3161 3165 3167 3169 3172 3173 3173 3171 3175 3176 3170 3171 3172 3174 3171 3164 3168 3172 3174 3173 3172 3170 3169 3167 3164 3162 3161 3160 3158 3156 3154 3155 3154 3153 3153 3151
3158 3160 3162 3162 3162 3163 3163 3161 3159 3157 3156 3158 3159 3162 3165 3167 3165 3164 3167 3167 3168 3170 3169 3169 3169 3163 3169 3168 3164 3166 3169 3170 3169 3169 3167 3165 3163 3161 3158 3157 3156 3154 3151 3150 3149 3149 3148 3146 3145
3155 3158 3159 3159 3162 3165 3162 3160 3156 3155 3155 3157 3159 3161 3165 3165 3163 3163 3165 3167 3165 3166 3168 3172 3169 3164 3166 3164 3162 3164 3166 3167 3165 3164 3164 3161 3159 3156 3154 3152 3149 3147 3144 3142 3142 3143 3141 3140 3139
3153 3153 3155 3156 3156 3158 3163 3156 3154 3154 3156 3156 3159 3160 3162 3163 3163 3162 3164 3165 3163 3164 3168 3168 3165 3164 3163 3163 3162 3163 3162 3161 3161 3160 3158 3156 3153 3150 3148 3145 3143 3140 3137 3135 3134 3135 3135 3133 3132
3147 3149 3150 3152 3154 3153 3153 3153 3152 3152 3152 3154 3154 3158 3160 3161 3160 3161 3162 3163 3163 3164 3166 3165 3164 3164 3163 3162 3162 3161 3160 3159 3158 3155 3154 3151 3146 3142 3139 3137 3134 3131 3128 3127 3126 3126 3126 3126 3124